SCP
2 3 3 4 5 6 7 6 5 5 5 7 8 8 8 8 7 7 5 3 3 3 3 3 3 3 2 2 2 2 2 1 1 1 1 1 1 1 1 1 1 1 1
2 2 3 3 3 4 4 4 4 4 5 6 6 7 7 7 7 6 4 3 3 2 3 3 3 2 2 2 2 2 3 5 3 1 1 1 1 1 1 1 1 1 1
1 1 2 2 2 2 2 3 4 4 5 4 5 5 5 5 5 4 4 3 2 2 2 2 2 2 3 3 2 2 5 8 4 1 1 1 1 1 1 1 1 1 1
1 1 1 1 1 2 2 3 4 5 4 4 4 4 4 4 3 3 3 3 3 2 2 2 2 2 2 2 2 2 4 5 3 1 1 1 1 1 1 1 1 1 1
1 1 1 1 1 1 2 3 5 6 5 4 4 4 4 4 3 3 3 3 3 2 2 2 2 2 2 2 2 2 2 2 2 2 2 1 1 1 1 1 1 1 1
1 1 1 1 1 2 2 3 5 6 6 5 4 4 4 4 3 2 2 2 2 2 2 2 2 1 1 1 2 2 2 2 2 2 2 2 2 2 2 2 1 1 1
1 1 1 1 2 2 2 3 4 5 5 5 4 3 3 3 2 2 2 2 2 2 2 2 2 2 1 1 1 2 2 2 1 1 2 2 3 3 2 2 2 1 1
1 1 1 1 1 1 2 2 3 4 4 4 3 3 3 2 2 2 2 2 2 2 2 2 2 2 2 1 1 1 1 1 1 1 1 2 3 3 3 3 2 2 2
1 1 1 1 1 1 1 2 2 2 2 2 2 2 2 2 1 1 1 1 2 2 2 2 2 2 2 2 2 1 1 1 1 1 1 2 2 3 3 3 3 2 2
0 0 1 1 1 0 1 1 1 1 1 1 1 2 2 2 1 1 1 1 1 1 1 1 1 2 2 2 2 1 1 1 1 1 1 1 2 2 2 2 3 3 2
0 0 0 0 0 0 0 0 1 1 1 1 1 2 2 2 2 2 2 2 2 1 1 1 1 1 1 1 1 1 1 1 1 1 1 1 1 1 1 2 2 3 3
0 0 0 0 0 0 0 0 0 0 1 1 1 1 1 1 2 2 2 2 1 1 1 1 1 1 1 1 1 1 1 1 1 1 1 1 1 1 1 1 2 2 3
0 0 0 0 0 0 0 0 0 0 0 0 1 1 1 1 1 1 1 1 1 1 1 1 1 1 1 1 1 1 1 1 1 1 1 1 1 1 1 1 1 2 2
0 0 0 0 0 0 0 0 0 0 0 0 0 1 1 1 1 1 1 1 1 1 1 1 1 1 1 1 1 1 1 1 1 1 1 1 1 1 1 1 1 1 1
0 0 0 0 0 0 0 0 0 0 0 0 0 0 1 1 1 1 1 1 1 1 1 1 1 1 1 1 1 1 1 1 1 1 1 1 1 1 1 1 1 1 1
0 0 0 0 0 0 0 0 0 0 0 0 0 0 0 0 0 1 1 1 1 1 1 1 1 1 1 0 0 0 1 1 1 1 1 1 1 1 0 0 0 1 1
0 0 0 0 0 0 0 0 0 0 0 0 0 0 0 0 0 0 0 1 1 1 1 1 1 1 1 0 0 0 0 1 1 1 1 1 0 0 0 0 0 0 0
0 0 0 0 0 0 0 0 0 0 0 0 0 0 0 0 0 0 0 1 1 1 1 1 1 1 0 0 0 0 0 1 1 1 1 1 0 0 0 0 0 0 0
0 0 0 0 0 0 0 0 0 0 0 0 0 0 0 0 0 0 1 1 1 1 1 1 1 1 0 0 0 0 0 1 1 1 1 1 0 0 0 0 0 0 0
0 0 0 0 0 0 0 0 0 0 0 0 0 0 0 0 0 0 1 1 1 1 1 1 1 0 0 0 0 0 0 1 1 1 1 1 0 0 0 0 0 0 0
0 0 0 0 0 0 0 0 0 0 0 0 0 0 0 0 0 1 1 1 1 1 0 0 0 0 0 0 0 0 0 0 1 1 1 1 0 0 0 0 0 0 0
0 0 0 0 0 0 0 0 0 0 0 0 0 0 0 0 0 1 1 1 1 1 0 0 0 0 0 0 0 0 0 0 0 1 1 0 0 0 0 0 0 0 0
0 0 0 0 0 0 0 0 0 0 0 0 0 0 0 1 1 1 1 1 1 1 0 0 0 0 0 0 0 0 0 0 0 0 0 0 0 0 0 0 0 0 0
0 0 0 0 0 0 0 0 0 0 0 0 0 0 0 1 1 1 1 1 1 0 0 0 0 0 0 0 0 0 0 0 0 0 0 0 0 0 0 0 0 0 0
0 0 0 0 0 0 0 0 0 0 0 0 0 0 0 1 1 1 1 0 0 0 0 0 0 0 0 0 0 0 0 0 0 0 0 0 0 0 0 0 0 0 0
0 0 0 0 0 0 0 0 0 0 0 0 0 0 0 1 1 1 0 0 0 0 0 0 0 0 0 0 0 0 0 0 0 0 0 0 0 0 0 0 0 0 0
Wind_Speed
7 6 5 5 5 4 3 3 3 2 2 2 2 2 2 3 2 1 1 2 2 3 3 4 3 3 3 3 3 3 4 4 3 3 4 4 6 7 6 6 6 7 8
7 6 4 4 4 4 3 2 2 2 2 2 2 2 2 3 3 1 0 0 1 2 4 2 3 2 2 3 3 3 3 3 3 3 2 3 4 5 8 5 5 5 5
6 5 4 4 3 3 1 2 2 1 2 3 3 3 3 3 3 2 1 0 1 2 2 3 3 2 2 2 2 2 3 3 3 3 3 2 2 2 3 6 6 5 4
5 4 3 2 2 1 2 2 2 1 1 2 3 5 5 5 5 3 3 2 2 3 3 2 2 1 2 2 3 2 2 3 3 2 3 2 1 1 1 3 4 5 4
3 2 1 0 1 2 2 1 2 1 1 2 4 5 5 5 5 5 6 5 4 5 5 4 2 1 1 1 2 2 2 3 3 3 2 3 2 3 2 3 3 3 3
1 1 1 1 2 3 3 2 1 1 1 3 4 5 6 6 7 8 7 6 5 4 5 4 3 2 1 1 1 2 2 2 3 3 3 2 2 2 2 2 4 4 4
1 1 1 2 3 3 3 3 2 2 3 4 5 5 7 7 8 9 7 6 5 4 4 3 3 3 3 2 2 2 2 3 3 3 3 3 3 3 3 2 3 3 3
2 2 2 2 3 4 4 4 4 4 4 4 5 5 7 6 6 7 6 6 5 6 6 5 3 4 4 4 3 2 3 2 3 4 3 3 3 3 3 3 2 2 2
6 6 7 7 6 6 5 5 5 5 5 5 7 7 7 6 6 7 7 7 6 7 6 5 5 4 5 5 5 4 4 3 3 3 4 4 2 2 3 3 2 2 2
9 10 9 9 8 7 6 6 5 5 5 7 7 9 6 6 7 7 8 7 7 8 8 8 7 7 6 6 6 5 5 5 5 4 4 4 3 2 2 3 2 2 2
10 10 9 9 9 9 8 7 7 7 6 6 6 7 6 6 7 7 7 7 7 7 7 7 8 8 8 7 7 8 7 7 6 6 6 6 5 3 2 2 2 2 1
10 10 10 9 9 9 9 9 8 8 7 7 7 7 7 7 8 9 8 8 8 8 9 8 9 9 10 8 8 9 9 8 8 7 7 6 5 6 4 3 3 2 1
11 10 10 9 9 9 9 9 10 9 9 9 8 8 8 8 8 8 8 8 8 8 9 9 9 9 10 9 9 9 9 9 8 8 8 7 7 6 5 5 4 3 3
9 10 9 8 8 8 8 9 10 10 10 9 10 9 9 9 9 9 9 9 9 9 9 9 9 9 10 10 10 10 10 9 9 8 8 7 7 7 6 6 5 4 4
11 11 10 9 9 9 8 8 9 9 9 10 11 10 9 9 9 9 9 9 9 12 9 9 9 9 9 10 10 9 12 10 9 9 8 9 9 10 8 6 6 6 5
12 12 12 11 10 10 9 9 10 9 9 10 11 11 10 10 10 10 10 9 9 9 9 10 10 10 11 10 8 6 8 8 8 9 9 9 9 11 12 11 8 8 7
12 12 12 11 9 9 8 9 10 10 10 10 11 11 11 12 11 13 12 11 10 10 10 11 10 11 11 12 11 9 6 8 8 8 7 10 11 12 10 11 12 10 10
11 11 11 12 11 10 10 10 12 11 11 11 11 11 12 13 12 12 12 11 10 10 10 11 11 10 11 13 12 11 9 8 9 8 8 9 8 7 8 10 10 9 9
10 10 11 12 11 11 11 11 12 12 12 12 12 13 13 14 13 13 12 11 10 10 10 10 10 10 10 11 12 11 7 7 9 9 9 9 9 10 9 8 7 7 7
9 10 11 11 10 11 11 12 12 12 12 13 13 13 13 13 14 13 12 10 9 10 10 10 9 9 9 10 12 11 7 7 7 7 7 10 10 11 12 7 7 7 6
10 10 10 9 9 10 9 11 12 12 13 13 13 13 13 13 13 11 9 9 9 9 9 10 8 8 8 9 12 13 7 6 6 6 6 6 11 12 13 10 6 6 4
11 11 9 9 8 9 9 11 12 12 13 13 14 14 13 13 12 10 10 9 9 9 8 7 7 5 6 7 9 13 12 7 4 4 4 4 9 12 13 9 6 6 4
10 10 10 10 9 9 9 11 11 12 13 13 14 13 14 12 11 10 9 8 7 6 6 5 5 4 3 4 7 11 11 9 5 2 2 4 8 10 9 10 9 7 4
10 10 11 11 10 10 10 10 11 12 13 13 13 12 12 11 9 7 6 6 6 6 5 5 4 4 2 1 2 5 6 7 6 4 3 6 8 6 5 7 7 6 5
9 9 9 10 11 10 10 10 11 12 13 13 12 12 11 9 8 7 5 5 4 3 4 5 5 4 3 3 3 0 2 4 5 6 5 4 5 5 5 6 7 7 7
9 9 10 11 11 10 10 10 11 11 12 12 11 9 9 8 7 7 5 3 2 1 1 2 4 3 3 4 2 3 3 2 3 4 5 5 6 7 7 7 7 7 7
Wind_Direction
101 96 96 94 93 87 79 65 51 44 2 2 342 336 339 321 298 278 34 333 331 332 311 305 300 280 278 271 258 245 253 249 248 252 260 253 239 220 213 207 208 205 203
114 109 110 107 98 95 95 102 76 40 7 19 319 281 298 294 292 312 223 271 323 317 312 317 300 299 283 274 271 255 255 253 234 221 237 245 234 222 211 194 199 215 200
116 117 115 110 108 99 83 67 61 15 359 339 312 320 312 292 300 311 282 235 300 282 289 303 309 312 298 284 281 251 244 253 264 232 224 237 227 190 210 200 195 194 193
124 124 122 116 128 167 182 159 176 207 283 304 321 327 310 306 310 308 307 309 268 251 240 248 274 310 313 306 291 277 258 255 267 276 259 261 300 258 192 220 190 178 183
120 113 93 206 280 286 274 212 175 187 280 312 305 303 304 311 313 318 308 302 283 257 235 219 204 226 276 312 310 323 302 272 265 268 284 285 269 254 230 218 191 179 175
112 134 250 250 266 283 294 319 63 72 334 319 317 312 307 307 304 299 291 285 269 257 245 215 183 198 213 247 280 279 271 279 283 283 280 281 273 268 262 239 204 191 192
179 259 269 278 285 302 327 348 7 355 342 325 318 315 312 307 291 280 279 283 292 288 277 254 183 200 202 210 224 243 254 249 254 261 273 281 278 282 274 263 251 213 183
5 320 306 317 332 333 347 353 357 346 336 322 312 303 295 288 287 299 313 307 298 291 287 285 244 220 214 222 209 225 228 230 243 248 254 268 275 291 285 274 270 255 218
358 352 359 356 353 351 352 345 339 334 325 314 303 286 274 280 295 303 295 287 281 285 292 299 285 254 229 221 214 225 232 222 226 239 238 241 251 274 296 287 270 239 227
354 357 356 350 352 347 346 343 339 333 326 316 306 306 313 311 297 290 285 286 288 283 275 269 270 265 250 228 217 221 224 220 219 221 233 238 233 235 267 287 276 256 229
354 349 346 350 349 343 339 343 342 335 323 314 306 302 298 295 293 291 289 288 286 287 284 277 272 264 256 244 230 226 221 218 218 218 216 221 220 222 227 250 270 277 253
352 350 348 350 344 340 340 338 334 325 319 317 315 311 307 304 300 298 296 297 295 290 287 280 274 269 262 248 238 233 231 220 218 218 216 214 215 213 219 218 231 241 235
356 350 350 347 342 343 338 331 324 322 321 319 316 312 309 306 301 298 295 291 289 285 281 279 277 272 268 263 252 239 233 225 220 218 217 213 209 212 210 208 214 217 223
354 350 347 343 343 335 330 326 323 323 318 318 314 308 304 302 300 299 297 296 292 287 281 275 272 270 267 263 259 251 240 231 225 218 218 216 210 208 206 211 208 206 208
348 346 341 338 335 331 328 325 323 320 316 312 308 307 305 306 304 300 298 294 291 289 287 284 279 272 266 258 251 250 249 237 228 222 218 219 215 210 201 208 201 197 199
345 340 338 336 332 330 328 328 322 319 316 314 312 312 311 307 302 299 295 292 290 287 283 278 275 272 269 270 263 254 263 257 239 227 220 222 220 210 201 205 202 196 200
341 340 338 331 330 330 331 325 322 319 318 315 314 314 312 308 306 305 302 298 295 290 282 276 271 266 262 260 253 241 247 257 248 234 220 225 222 201 195 202 205 208 215
343 339 332 329 329 332 329 328 324 322 321 320 318 316 313 310 308 303 299 298 294 288 281 276 270 265 261 252 243 234 236 243 242 236 223 218 232 223 200 199 202 205 210
342 333 329 328 329 332 333 332 323 322 321 321 320 317 314 310 306 303 301 299 294 288 282 276 269 263 259 246 237 227 232 235 238 233 226 215 214 218 201 199 202 206 213
337 332 330 330 333 336 334 327 322 323 323 322 319 315 311 307 303 300 298 296 292 287 286 279 269 262 256 240 227 218 227 230 234 230 228 220 213 206 196 199 202 209 214
335 334 334 334 334 333 332 326 324 325 325 321 314 311 309 304 298 299 300 298 295 291 286 281 272 261 251 239 221 211 222 224 228 228 219 214 202 199 197 200 203 207 211
337 337 334 333 333 338 336 328 326 327 323 319 314 311 309 306 307 308 305 303 300 297 294 288 281 266 248 237 219 207 215 229 237 229 220 200 186 192 192 194 188 172 181
337 334 333 330 335 340 338 329 328 327 322 319 315 312 310 308 306 306 308 309 308 305 304 299 294 285 260 228 213 204 208 216 232 234 184 174 173 179 191 203 184 173 196
334 335 333 332 334 337 337 334 329 326 323 319 316 314 313 310 311 311 311 311 318 322 322 323 321 314 305 273 196 189 195 201 216 218 182 168 166 184 197 183 188 201 213
334 334 333 331 333 335 335 338 333 328 324 320 318 318 314 312 316 318 322 324 347 339 319 327 331 334 338 359 356 216 183 191 195 183 175 179 176 195 205 197 191 199 206
334 334 333 331 332 334 337 338 335 330 324 320 320 318 315 316 319 320 323 344 329 326 322 324 322 341 19 3 39 89 105 116 137 175 192 197 199 205 208 208 200 199 203